FIN4TR EFHK-YSSY

Flight info

Callsign FIN4TR
Flight time N/A
Altitude 34000
Route EFHK/22L KOIVU Y123 LARTI DCT LUTAL DCT BERIL/N0497F330 DCT BOKSU/N0490F340 DCT TOXAR DCT ROBTU/N0492F330 DCT KENIN DCT SAT DCT DINRO DCT UDROS UM859 RUVOM/N0490F350 UM859 KARDE UN644 ROLIN N644 LAGAS M747 SUBUT T923 ERLEV L850 BAKUV N701 LARGI B701 KRS A240 INRAK B449 RANAH L750 VELDT/N0488F370 L750 ZB G202 RK P628 IBANI L510 GURVI T1 BBS L759 KASVI/N0488F390 L759 PUT B579 VPL Y503 RINBA Y507 MAKNA Y511 TOPOR A464 SJ B470 ANITO DCT 0439S10751E/N0482F410 0657S10917E DCT SAPDA A585 PD T21 LEC J141 NEWMO DCT NODEK DCT VELGI Y105 TARAL Y59 RIVET
Aircraft A359/H-SDE2E3GHIJ3J4J5LM1ORWXY/LB1D1

Departure

Time 2026-05-03 20:24
Airport Helsinki Vantaa Airport (EFHK)

Arrival

Time N/A
Airport Sydney Kingsford Smith International Airport (YSSY)
Time Latitude Longitude Altitude Speed Heading
2026-05-03 20:15 60.31469 24.95603 167 ft 0 kts 135°
2026-05-03 20:15 60.31474 24.95591 167 ft 2 kts 137°
2026-05-03 20:15 60.31486 24.95569 166 ft 2 kts 136°
2026-05-03 20:15 60.31498 24.95546 166 ft 2 kts 136°
2026-05-03 20:16 60.31508 24.95520 166 ft 2 kts 99°
2026-05-03 20:16 60.31508 24.95487 166 ft 2 kts 75°
2026-05-03 20:16 60.31501 24.95458 165 ft 2 kts 46°
2026-05-03 20:16 60.31490 24.95434 165 ft 2 kts 46°
2026-05-03 20:17 60.31483 24.95418 165 ft 0 kts 47°
2026-05-03 20:17 60.31482 24.95418 165 ft 0 kts 48°
2026-05-03 20:19 60.31493 24.95441 165 ft 8 kts 48°
2026-05-03 20:19 60.31558 24.95588 166 ft 20 kts 48°
2026-05-03 20:19 60.31653 24.95732 167 ft 0 kts 43°
2026-05-03 20:20 60.31691 24.95811 168 ft 14 kts 50°
2026-05-03 20:20 60.31703 24.95840 168 ft 16 kts 48°
2026-05-03 20:20 60.31799 24.96053 169 ft 26 kts 47°
2026-05-03 20:21 60.31867 24.96156 170 ft 5 kts 337°
2026-05-03 20:21 60.31926 24.96054 169 ft 17 kts 334°
2026-05-03 20:21 60.32011 24.96147 169 ft 19 kts 44°
2026-05-03 20:21 60.32128 24.96399 171 ft 30 kts 47°
2026-05-03 20:22 60.32282 24.96737 174 ft 33 kts 47°
2026-05-03 20:22 60.32457 24.97123 177 ft 41 kts 47°
2026-05-03 20:22 60.32622 24.97487 180 ft 32 kts 47°
2026-05-03 20:22 60.32762 24.97791 195 ft 25 kts 47°
2026-05-03 20:23 60.32864 24.98017 207 ft 20 kts 47°
2026-05-03 20:23 60.32963 24.98032 204 ft 13 kts 336°
2026-05-03 20:23 60.33027 24.97939 211 ft 9 kts 301°
2026-05-03 20:23 60.33016 24.97812 205 ft 13 kts 241°
2026-05-03 20:24 60.32842 24.97410 192 ft 72 kts 227°
2026-05-03 20:24 60.32348 24.96317 171 ft 137 kts 227°
2026-05-03 20:24 60.31603 24.94689 460 ft 161 kts 230°
2026-05-03 20:24 60.30793 24.93123 1076 ft 163 kts 217°
2026-05-03 20:25 60.29835 24.91815 1614 ft 175 kts 219°
2026-05-03 20:25 60.28805 24.90270 1895 ft 194 kts 217°
2026-05-03 20:25 60.27594 24.88866 2107 ft 208 kts 208°
2026-05-03 20:25 60.26263 24.87467 2289 ft 224 kts 209°
2026-05-03 20:26 60.24881 24.85925 2550 ft 235 kts 211°
2026-05-03 20:26 60.23411 24.84429 3006 ft 238 kts 200°
2026-05-03 20:26 60.21814 24.83533 3506 ft 239 kts 194°
2026-05-03 20:26 60.20178 24.82801 3959 ft 242 kts 194°
2026-05-03 20:27 60.18525 24.82070 4415 ft 243 kts 195°
2026-05-03 20:27 60.16876 24.81330 4933 ft 243 kts 195°
2026-05-03 20:27 60.15216 24.80574 5384 ft 245 kts 196°
2026-05-03 20:27 60.13533 24.79796 5729 ft 253 kts 196°
2026-05-03 20:28 60.11776 24.78983 6036 ft 262 kts 196°
2026-05-03 20:28 60.09981 24.78161 6491 ft 265 kts 196°
2026-05-03 20:28 60.08175 24.77335 7008 ft 267 kts 196°
2026-05-03 20:28 60.06382 24.76514 7521 ft 269 kts 197°
2026-05-03 20:29 60.04553 24.75676 8066 ft 270 kts 197°
2026-05-03 20:29 60.02714 24.74834 8601 ft 272 kts 197°
2026-05-03 20:29 60.00863 24.73988 9158 ft 273 kts 197°
2026-05-03 20:29 59.99002 24.73137 9707 ft 275 kts 197°
2026-05-03 20:30 59.97127 24.72279 10116 ft 281 kts 197°
2026-05-03 20:30 59.95170 24.71380 10343 ft 294 kts 197°
2026-05-03 20:30 59.93131 24.70446 10579 ft 307 kts 197°
2026-05-03 20:30 59.91002 24.69474 10803 ft 320 kts 197°
2026-05-03 20:31 59.88787 24.68467 11027 ft 332 kts 197°
2026-05-03 20:31 59.86491 24.67425 11251 ft 344 kts 197°
2026-05-03 20:31 59.84120 24.66350 11480 ft 355 kts 197°
2026-05-03 20:31 59.81711 24.65235 11838 ft 361 kts 198°
2026-05-03 20:32 59.79253 24.64077 12306 ft 365 kts 198°
2026-05-03 20:32 59.76775 24.62903 12790 ft 368 kts 198°
2026-05-03 20:32 59.74275 24.61720 13289 ft 370 kts 198°
2026-05-03 20:32 59.71757 24.60531 13781 ft 373 kts 198°
2026-05-03 20:33 59.69230 24.59342 14213 ft 375 kts 198°
2026-05-03 20:33 59.66675 24.58144 14651 ft 378 kts 199°
2026-05-03 20:33 59.64098 24.56989 15086 ft 381 kts 197°
2026-05-03 20:33 59.61490 24.55941 15541 ft 383 kts 197°
2026-05-03 20:34 59.58863 24.54938 15919 ft 386 kts 197°
2026-05-03 20:34 59.56217 24.53941 16358 ft 388 kts 197°
2026-05-03 20:34 59.53552 24.52930 16793 ft 390 kts 197°
2026-05-03 20:34 59.50876 24.51901 17211 ft 392 kts 197°
2026-05-03 20:35 59.48187 24.50856 17665 ft 395 kts 198°
2026-05-03 20:35 59.45483 24.49798 18112 ft 397 kts 198°
2026-05-03 20:35 59.42804 24.48747 18473 ft 399 kts 198°
2026-05-03 20:35 59.40069 24.47674 18856 ft 401 kts 198°
2026-05-03 20:36 59.37318 24.46596 19258 ft 403 kts 198°
2026-05-03 20:36 59.34558 24.45517 19656 ft 405 kts 198°
2026-05-03 20:36 59.31780 24.44434 20066 ft 408 kts 198°
2026-05-03 20:36 59.28992 24.43349 20460 ft 410 kts 198°
2026-05-03 20:37 59.26187 24.42259 20861 ft 412 kts 198°
2026-05-03 20:37 59.23366 24.41165 21258 ft 414 kts 198°
2026-05-03 20:37 59.20519 24.40063 21655 ft 417 kts 198°
2026-05-03 20:37 59.17661 24.38959 22045 ft 419 kts 198°
2026-05-03 20:38 59.14791 24.37852 22430 ft 421 kts 198°
2026-05-03 20:38 59.11905 24.36739 22773 ft 424 kts 198°
2026-05-03 20:38 59.09001 24.35616 23127 ft 427 kts 198°
2026-05-03 20:38 59.06078 24.34494 23501 ft 429 kts 198°
2026-05-03 20:39 59.03142 24.33372 23781 ft 432 kts 198°
2026-05-03 20:39 59.00215 24.32252 23999 ft 436 kts 198°
2026-05-03 20:39 58.97220 24.31109 24303 ft 439 kts 198°
2026-05-03 20:39 58.94219 24.29969 24624 ft 441 kts 198°
2026-05-03 20:40 58.91203 24.28825 24927 ft 443 kts 198°
2026-05-03 20:40 58.88169 24.27675 25230 ft 445 kts 198°
2026-05-03 20:40 58.85127 24.26523 25540 ft 447 kts 198°
2026-05-03 20:40 58.82065 24.25365 25833 ft 449 kts 198°
2026-05-03 20:41 58.78986 24.24202 26127 ft 452 kts 198°
2026-05-03 20:41 58.75883 24.23033 26426 ft 454 kts 198°
2026-05-03 20:41 58.72776 24.21863 26644 ft 457 kts 198°
2026-05-03 20:41 58.69643 24.20685 26922 ft 459 kts 198°
2026-05-03 20:42 58.66496 24.19505 27223 ft 461 kts 198°
2026-05-03 20:42 58.63335 24.18324 27504 ft 463 kts 198°
2026-05-03 20:42 58.60165 24.17140 27778 ft 465 kts 198°
2026-05-03 20:42 58.57025 24.15970 28037 ft 467 kts 198°
2026-05-03 20:43 58.53827 24.14780 28307 ft 469 kts 198°
2026-05-03 20:43 58.50610 24.13586 28575 ft 471 kts 198°
2026-05-03 20:43 58.47383 24.12390 28821 ft 473 kts 198°
2026-05-03 20:43 58.44142 24.11190 29026 ft 475 kts 197°
2026-05-03 20:44 58.40891 24.09990 29268 ft 476 kts 197°
2026-05-03 20:44 58.37629 24.08788 29500 ft 478 kts 197°
2026-05-03 20:44 58.34356 24.07585 29723 ft 480 kts 197°
2026-05-03 20:44 58.31073 24.06379 29932 ft 481 kts 197°
2026-05-03 20:45 58.29516 24.05809 30021 ft 482 kts 197°
2026-05-03 21:03 58.27937 24.05230 30136 ft 482 kts 197°
2026-05-03 21:03 58.24647 24.04029 30436 ft 480 kts 197°
2026-05-03 21:03 58.21369 24.02836 30695 ft 480 kts 197°
2026-05-03 21:03 58.18089 24.01642 30898 ft 480 kts 197°
2026-05-03 21:04 58.14813 24.00449 31094 ft 480 kts 197°
2026-05-03 21:04 58.11564 23.99269 31306 ft 480 kts 197°
2026-05-03 21:04 58.08288 23.98082 31545 ft 479 kts 197°
2026-05-03 21:04 58.05012 23.96897 31734 ft 479 kts 197°
2026-05-03 21:05 58.01738 23.95716 31880 ft 480 kts 196°
2026-05-03 21:05 57.98454 23.94531 32046 ft 480 kts 197°
2026-05-03 21:05 57.95174 23.93351 32267 ft 479 kts 197°
2026-05-03 21:05 57.91892 23.92173 32480 ft 479 kts 197°
2026-05-03 21:06 57.88618 23.91001 32636 ft 479 kts 196°
2026-05-03 21:06 57.85332 23.89871 32779 ft 480 kts 195°
2026-05-03 21:06 57.82047 23.88790 32949 ft 480 kts 195°
2026-05-03 21:06 57.78761 23.87726 33133 ft 479 kts 195°
2026-05-03 21:07 57.75464 23.86663 33297 ft 479 kts 195°
2026-05-03 21:07 57.72183 23.85602 33453 ft 479 kts 195°
2026-05-03 21:07 57.68941 23.84548 33605 ft 478 kts 196°
2026-05-03 21:07 57.65669 23.83481 33761 ft 478 kts 196°
2026-05-03 21:08 57.59102 23.81338 33951 ft 478 kts 195°
2026-05-03 21:08 57.55820 23.80268 34057 ft 478 kts 195°
2026-05-03 21:08 57.52545 23.79204 34178 ft 478 kts 195°
2026-05-03 21:09 57.49273 23.78143 34288 ft 477 kts 195°
2026-05-03 21:09 57.45995 23.77082 34423 ft 477 kts 195°
2026-05-03 21:09 57.39459 23.74971 34621 ft 476 kts 195°
2026-05-03 21:10 57.36187 23.73918 34723 ft 476 kts 195°
2026-05-03 21:10 57.32968 23.72882 34759 ft 476 kts 195°
2026-05-03 21:10 57.26418 23.70780 34889 ft 477 kts 195°
2026-05-03 21:11 57.19872 23.68691 35085 ft 476 kts 195°
2026-05-03 21:11 57.13352 23.66617 35247 ft 476 kts 195°
2026-05-03 21:12 57.06827 23.64547 35399 ft 475 kts 195°
2026-05-03 21:12 57.00342 23.62496 35524 ft 475 kts 195°
2026-05-03 21:13 56.93832 23.60447 35667 ft 474 kts 195°
2026-05-03 21:13 56.87322 23.58404 35796 ft 474 kts 195°
2026-05-03 21:14 56.80823 23.56372 35881 ft 474 kts 195°
2026-05-03 21:14 56.74305 23.54339 35974 ft 474 kts 194°
2026-05-03 21:15 56.67821 23.52328 36116 ft 473 kts 194°
2026-05-03 21:15 56.61372 23.50333 36211 ft 472 kts 194°
2026-05-03 21:16 56.54892 23.48334 36300 ft 472 kts 194°
2026-05-03 21:16 56.48417 23.46344 36384 ft 472 kts 194°
2026-05-03 21:17 56.43028 23.44694 36450 ft 471 kts 194°
2026-05-03 21:17 56.35467 23.42388 36548 ft 471 kts 194°
2026-05-03 21:18 56.28971 23.40958 36600 ft 474 kts 190°
2026-05-03 21:18 56.22400 23.39901 36644 ft 474 kts 189°
2026-05-03 21:19 56.15818 23.38788 36694 ft 473 kts 190°
2026-05-03 21:19 56.09266 23.37599 36717 ft 474 kts 190°
2026-05-03 21:20 56.02694 23.36375 36676 ft 475 kts 190°
2026-05-03 21:20 55.96158 23.35163 36738 ft 475 kts 190°
2026-05-03 21:21 55.89574 23.33948 36709 ft 476 kts 190°
2026-05-03 21:21 55.82971 23.32737 36787 ft 476 kts 190°
2026-05-03 21:22 55.76391 23.31536 36838 ft 475 kts 190°
2026-05-03 21:22 55.69811 23.30338 36883 ft 475 kts 190°
2026-05-03 21:23 55.63275 23.29150 36868 ft 476 kts 189°
2026-05-03 21:23 55.56692 23.27959 36921 ft 476 kts 189°
2026-05-03 21:24 55.50093 23.26769 36928 ft 476 kts 189°
2026-05-03 21:24 55.43490 23.25582 36930 ft 477 kts 189°
2026-05-03 21:25 55.36885 23.24398 36929 ft 477 kts 189°
2026-05-03 21:25 55.30257 23.23215 36926 ft 478 kts 189°
2026-05-03 21:26 55.23632 23.22037 36930 ft 479 kts 189°
2026-05-03 21:26 55.17038 23.20868 36931 ft 480 kts 189°
2026-05-03 21:27 55.10393 23.19693 36933 ft 480 kts 188°
2026-05-03 21:27 55.03743 23.18522 36933 ft 481 kts 188°
2026-05-03 21:28 54.97083 23.17353 36936 ft 481 kts 188°
2026-05-03 21:28 54.90398 23.16183 36937 ft 482 kts 188°
2026-05-03 21:29 54.83716 23.15018 36934 ft 483 kts 188°
2026-05-03 21:29 54.77028 23.13856 36942 ft 483 kts 188°
2026-05-03 21:30 54.70331 23.12696 36945 ft 484 kts 188°
2026-05-03 21:30 54.63624 23.11538 36945 ft 484 kts 188°
2026-05-03 21:31 54.56921 23.10384 36946 ft 484 kts 188°
2026-05-03 21:31 54.50209 23.09233 36952 ft 485 kts 188°
2026-05-03 21:32 54.43495 23.08085 36955 ft 485 kts 187°
2026-05-03 21:32 54.36770 23.06939 36961 ft 486 kts 187°
2026-05-03 21:33 54.30081 23.05802 36959 ft 486 kts 187°
2026-05-03 21:33 54.23410 23.03986 36965 ft 486 kts 193°
2026-05-03 21:34 54.16785 23.01646 36965 ft 486 kts 193°
2026-05-03 21:34 54.10146 22.99383 36970 ft 487 kts 192°
2026-05-03 21:35 54.03491 22.97240 36973 ft 487 kts 192°
2026-05-03 21:35 53.96821 22.95144 36977 ft 487 kts 192°
2026-05-03 21:36 53.90152 22.93058 36976 ft 487 kts 192°
2026-05-03 21:36 53.83482 22.90973 36973 ft 487 kts 192°
2026-05-03 21:37 53.76811 22.88892 36980 ft 487 kts 192°
2026-05-03 21:37 53.70153 22.86821 36981 ft 487 kts 192°
2026-05-03 21:38 53.63473 22.84749 36986 ft 487 kts 192°
2026-05-03 21:38 53.56807 22.82689 36986 ft 487 kts 191°
2026-05-03 21:39 53.50137 22.80634 36988 ft 488 kts 191°
2026-05-03 21:39 53.43452 22.78582 36990 ft 489 kts 191°
2026-05-03 21:40 53.36760 22.76534 36996 ft 489 kts 191°
2026-05-03 21:40 53.30105 22.74503 36991 ft 489 kts 191°
2026-05-03 21:41 53.23402 22.72464 37000 ft 489 kts 191°
2026-05-03 21:41 53.16705 22.70434 37004 ft 489 kts 191°
2026-05-03 21:42 53.10001 22.68408 36996 ft 489 kts 191°
2026-05-03 21:42 53.03297 22.66388 36994 ft 490 kts 191°
2026-05-03 21:43 52.96590 22.64374 37016 ft 490 kts 191°
2026-05-03 21:43 52.89878 22.62365 36998 ft 490 kts 191°
2026-05-03 21:44 52.83158 22.60360 37010 ft 490 kts 191°
2026-05-03 21:44 52.76480 22.58373 37012 ft 490 kts 191°
2026-05-03 21:45 52.69753 22.56378 37024 ft 491 kts 191°
2026-05-03 21:45 52.63031 22.54391 37013 ft 491 kts 191°
2026-05-03 21:46 52.56294 22.52591 37020 ft 491 kts 188°
2026-05-03 21:46 52.50645 22.51468 37023 ft 492 kts 187°
2026-05-03 21:47 52.42735 22.49947 37030 ft 492 kts 187°
2026-05-03 21:47 52.35941 22.48569 37032 ft 492 kts 187°
2026-05-03 21:48 52.30246 22.47385 37032 ft 492 kts 187°
2026-05-03 21:48 52.23446 22.45967 37031 ft 493 kts 187°
2026-05-03 21:49 52.16646 22.44556 37039 ft 493 kts 187°
2026-05-03 21:49 52.09889 22.43160 37039 ft 493 kts 187°
2026-05-03 21:50 52.03091 22.41761 37039 ft 493 kts 187°
2026-05-03 21:50 51.96278 22.40364 37043 ft 493 kts 187°
2026-05-03 21:51 51.89464 22.38970 37046 ft 493 kts 187°
2026-05-03 21:51 51.82653 22.37581 37045 ft 493 kts 187°
2026-05-03 21:52 51.75826 22.36193 37054 ft 494 kts 187°
2026-05-03 21:52 51.69001 22.34809 37056 ft 494 kts 187°
2026-05-03 21:53 51.62174 22.33430 37056 ft 495 kts 187°
2026-05-03 21:53 51.55347 22.32054 37060 ft 495 kts 187°
2026-05-03 21:54 51.48509 22.30681 37058 ft 495 kts 187°
2026-05-03 21:54 51.41666 22.29311 37059 ft 495 kts 187°
2026-05-03 21:55 51.34880 22.27956 37059 ft 495 kts 187°
2026-05-03 21:55 51.28037 22.26594 37062 ft 495 kts 187°
2026-05-03 21:56 51.21202 22.25237 37065 ft 495 kts 187°
2026-05-03 21:56 51.14358 22.23883 37065 ft 495 kts 187°
2026-05-03 21:57 51.07520 22.22534 37069 ft 495 kts 187°
2026-05-03 21:57 51.00679 22.21189 37072 ft 496 kts 187°
2026-05-03 21:58 50.93831 22.19846 37073 ft 496 kts 187°
2026-05-03 21:58 50.86980 22.18506 37080 ft 496 kts 187°
2026-05-03 21:59 50.80128 22.17170 37076 ft 496 kts 187°
2026-05-03 21:59 50.73272 22.15838 37079 ft 497 kts 187°
2026-05-03 22:00 50.66404 22.14507 37080 ft 497 kts 187°
2026-05-03 22:00 50.59584 22.13189 37082 ft 497 kts 187°
2026-05-03 22:01 50.52719 22.11867 37081 ft 498 kts 187°
2026-05-03 22:01 50.45841 22.10546 37081 ft 498 kts 187°
2026-05-03 22:02 50.38963 22.09228 37079 ft 497 kts 187°
2026-05-03 22:02 50.32086 22.07915 37076 ft 498 kts 187°
2026-05-03 22:03 50.25185 22.06601 37077 ft 499 kts 187°
2026-05-03 22:03 50.18288 22.05291 37075 ft 499 kts 187°
2026-05-03 22:04 50.11390 22.03985 37076 ft 500 kts 186°
2026-05-03 22:04 50.04478 22.02681 37076 ft 501 kts 186°
2026-05-03 22:05 49.97552 22.01377 37077 ft 502 kts 186°
2026-05-03 22:05 49.90620 22.00076 37094 ft 502 kts 186°
2026-05-03 22:06 49.83680 21.98777 37100 ft 503 kts 186°
2026-05-03 22:06 49.76775 21.97489 37105 ft 503 kts 186°
2026-05-03 22:07 49.69829 21.96196 37106 ft 503 kts 186°
2026-05-03 22:07 49.62869 21.94904 37113 ft 504 kts 186°
2026-05-03 22:08 49.55896 21.93615 37119 ft 505 kts 186°
2026-05-03 22:08 49.48917 21.92328 37120 ft 505 kts 186°
2026-05-03 22:09 49.41941 21.91045 37119 ft 505 kts 186°
2026-05-03 22:10 49.31461 21.89125 37128 ft 506 kts 186°
2026-05-03 22:10 49.24472 21.87849 37129 ft 506 kts 186°
2026-05-03 22:11 49.17483 21.86576 37133 ft 506 kts 186°
2026-05-03 22:11 49.10527 21.85313 37133 ft 506 kts 186°
2026-05-03 22:12 49.03531 21.84046 37132 ft 506 kts 186°
2026-05-03 22:12 48.96530 21.82782 37120 ft 506 kts 186°
2026-05-03 22:13 48.89521 21.81875 37133 ft 505 kts 177°
2026-05-03 22:13 48.82548 21.82877 37131 ft 503 kts 171°
2026-05-03 22:14 48.75609 21.84344 37134 ft 503 kts 170°
2026-05-03 22:14 48.68680 21.85869 37131 ft 503 kts 170°
2026-05-03 22:15 48.61743 21.87360 37130 ft 503 kts 170°
2026-05-03 22:15 48.54803 21.88824 37133 ft 503 kts 170°
2026-05-03 22:16 48.47868 21.90277 37131 ft 503 kts 170°
2026-05-03 22:16 48.40967 21.92009 37132 ft 501 kts 162°
2026-05-03 22:17 48.34641 21.96159 37133 ft 494 kts 143°
2026-05-03 22:17 48.29480 22.02844 37128 ft 489 kts 132°
2026-05-03 22:18 48.24742 22.10182 37149 ft 489 kts 130°
2026-05-03 22:18 48.20077 22.17518 37131 ft 490 kts 131°
2026-05-03 22:19 48.15311 22.24905 37133 ft 490 kts 131°
2026-05-03 22:19 48.10550 22.32205 37141 ft 490 kts 131°
2026-05-03 22:20 48.05823 22.39419 37141 ft 489 kts 131°
2026-05-03 22:20 48.01048 22.46686 37145 ft 489 kts 131°
2026-05-03 22:21 47.96281 22.53926 37146 ft 489 kts 131°
2026-05-03 22:21 47.91499 22.61167 37155 ft 490 kts 131°
2026-05-03 22:22 47.86716 22.68391 37146 ft 490 kts 131°
2026-05-03 22:22 47.81924 22.75608 37154 ft 490 kts 131°
2026-05-03 22:23 47.77128 22.82811 37154 ft 490 kts 131°
2026-05-03 22:23 47.72325 22.90006 37167 ft 490 kts 131°
2026-05-03 22:24 47.67693 22.97387 37157 ft 488 kts 128°
2026-05-03 22:24 47.63186 23.04918 37158 ft 488 kts 128°
2026-05-03 22:25 47.58655 23.12415 37159 ft 488 kts 129°
2026-05-03 22:25 47.54093 23.19865 37172 ft 489 kts 129°
2026-05-03 22:26 47.49509 23.27300 37165 ft 488 kts 129°
2026-05-03 22:26 47.44928 23.34706 37170 ft 488 kts 129°
2026-05-03 22:27 47.40365 23.42066 37173 ft 488 kts 129°
2026-05-03 22:27 47.35771 23.49456 37180 ft 489 kts 129°
2026-05-03 22:28 47.31181 23.56822 37173 ft 488 kts 129°
2026-05-03 22:28 47.26586 23.64175 37176 ft 488 kts 129°
2026-05-03 22:29 47.21986 23.71516 37176 ft 488 kts 129°
2026-05-03 22:29 47.17377 23.78850 37183 ft 488 kts 128°
2026-05-03 22:30 47.12773 23.86154 37176 ft 486 kts 128°
2026-05-03 22:30 47.08178 23.93428 37176 ft 485 kts 128°
2026-05-03 22:31 47.03581 24.00685 37170 ft 486 kts 129°
2026-05-03 22:31 46.98974 24.07938 37183 ft 486 kts 128°
2026-05-03 22:32 46.94367 24.15168 37172 ft 485 kts 128°
2026-05-03 22:32 46.89759 24.22381 37178 ft 485 kts 128°
2026-05-03 22:33 46.85142 24.29593 37176 ft 486 kts 129°
2026-05-03 22:33 46.80546 24.36750 37165 ft 486 kts 129°
2026-05-03 22:34 46.75922 24.43930 37179 ft 485 kts 129°
2026-05-03 22:34 46.71292 24.51100 37161 ft 485 kts 129°
2026-05-03 22:35 46.66655 24.58262 37179 ft 485 kts 129°
2026-05-03 22:35 46.62023 24.65398 37162 ft 485 kts 129°
2026-05-03 22:36 46.58163 24.71329 37163 ft 486 kts 129°
2026-05-03 22:36 46.53516 24.78453 37189 ft 486 kts 129°
2026-05-03 22:37 46.48864 24.85565 37175 ft 485 kts 129°
2026-05-03 22:37 46.44209 24.92665 37187 ft 486 kts 129°
2026-05-03 22:38 46.39540 24.99765 37182 ft 487 kts 129°
2026-05-03 22:38 46.34865 25.06857 37182 ft 487 kts 129°
2026-05-03 22:39 46.30185 25.13936 37181 ft 487 kts 129°
2026-05-03 22:39 46.25495 25.21012 37188 ft 487 kts 129°
2026-05-03 22:40 46.20839 25.28018 37187 ft 487 kts 129°